Time,TemperatureF,DewpointF,PressureIn,WindDirection,WindDirectionDegrees,WindSpeedMPH,WindSpeedGustMPH,Humidity,HourlyPrecipIn,Conditions,Clouds,dailyrainin,SoftwareType,DateUTC
2014-09-30 00:07:00,54.9,53.0,29.94,South,181,1.0,2.0,92,0.00,,,0.00,weatherlink.com 1.10,2014-09-30 07:07:00,
2014-09-30 00:22:00,55.0,53.0,29.95,SSW,210,0.0,1.0,91,0.00,,,0.00,weatherlink.com 1.10,2014-09-30 07:22:00,
2014-09-30 00:38:00,55.0,53.0,29.95,South,177,1.0,3.0,92,0.00,,,0.00,weatherlink.com 1.10,2014-09-30 07:38:00,
2014-09-30 00:53:00,55.2,53.0,29.96,SSW,207,0.0,2.0,91,0.00,,,0.00,weatherlink.com 1.10,2014-09-30 07:53:00,
2014-09-30 01:08:00,55.0,53.0,29.95,SSW,210,0.0,2.0,92,0.00,,,0.00,weatherlink.com 1.10,2014-09-30 08:08:00,
2014-09-30 01:23:00,54.7,53.0,29.95,SSE,159,1.0,3.0,92,0.00,,,0.00,weatherlink.com 1.10,2014-09-30 08:23:00,
2014-09-30 01:38:00,54.6,53.0,29.96,SSW,203,0.0,1.0,93,0.00,,,0.00,weatherlink.com 1.10,2014-09-30 08:38:00,
2014-09-30 01:53:00,54.6,52.0,29.96,SSW,205,1.0,1.0,92,0.00,,,0.00,weatherlink.com 1.10,2014-09-30 08:53:00,
2014-09-30 02:08:00,54.8,53.0,29.97,SSE,159,0.0,1.0,92,0.00,,,0.00,weatherlink.com 1.10,2014-09-30 09:08:00,
2014-09-30 02:23:00,54.9,53.0,29.98,SSE,158,0.0,3.0,92,0.00,,,0.00,weatherlink.com 1.10,2014-09-30 09:23:00,
2014-09-30 02:38:00,54.9,53.0,29.98,SSW,203,0.0,2.0,92,0.00,,,0.00,weatherlink.com 1.10,2014-09-30 09:38:00,
2014-09-30 02:53:00,54.9,52.0,29.98,South,187,0.0,2.0,91,0.00,,,0.00,weatherlink.com 1.10,2014-09-30 09:53:00,
2014-09-30 03:08:00,55.1,53.0,29.98,SSW,201,0.0,3.0,91,0.00,,,0.00,weatherlink.com 1.10,2014-09-30 10:08:00,
2014-09-30 03:23:00,55.0,53.0,29.98,SSW,205,1.0,3.0,91,0.00,,,0.00,weatherlink.com 1.10,2014-09-30 10:23:00,
2014-09-30 03:38:00,55.0,53.0,29.98,SSW,198,1.0,2.0,91,0.00,,,0.00,weatherlink.com 1.10,2014-09-30 10:38:00,
2014-09-30 03:53:00,54.9,52.0,29.98,SE,145,0.0,2.0,91,0.00,,,0.00,weatherlink.com 1.10,2014-09-30 10:53:00,
2014-09-30 04:08:00,54.7,53.0,29.99,SSW,212,0.0,1.0,92,0.00,,,0.00,weatherlink.com 1.10,2014-09-30 11:08:00,
2014-09-30 04:23:00,54.4,53.0,29.99,SE,145,0.0,1.0,93,0.00,,,0.00,weatherlink.com 1.10,2014-09-30 11:23:00,
2014-09-30 04:38:00,54.3,52.0,29.99,South,174,0.0,2.0,93,0.00,,,0.00,weatherlink.com 1.10,2014-09-30 11:38:00,
2014-09-30 04:53:00,54.1,52.0,29.99,SSE,159,0.0,1.0,93,0.00,,,0.00,weatherlink.com 1.10,2014-09-30 11:53:00,
2014-09-30 05:08:00,54.1,52.0,30.00,SE,124,0.0,3.0,93,0.00,,,0.00,weatherlink.com 1.10,2014-09-30 12:08:00,
2014-09-30 05:23:00,53.8,52.0,30.00,WSW,256,0.0,1.0,93,0.00,,,0.00,weatherlink.com 1.10,2014-09-30 12:23:00,
2014-09-30 05:38:00,53.6,52.0,30.00,SSE,155,0.0,1.0,94,0.00,,,0.00,weatherlink.com 1.10,2014-09-30 12:38:00,
2014-09-30 05:53:00,53.7,52.0,30.00,South,191,0.0,2.0,94,0.00,,,0.00,weatherlink.com 1.10,2014-09-30 12:53:00,
2014-09-30 06:08:00,54.1,52.0,30.00,SSW,209,0.0,7.0,93,0.00,,,0.00,weatherlink.com 1.10,2014-09-30 13:08:00,
2014-09-30 06:23:00,53.9,52.0,30.01,South,170,1.0,2.0,92,0.00,,,0.00,weatherlink.com 1.10,2014-09-30 13:23:00,
2014-09-30 06:38:00,53.6,52.0,30.01,SSW,198,0.0,1.0,93,0.00,,,0.00,weatherlink.com 1.10,2014-09-30 13:38:00,
2014-09-30 06:53:00,53.5,52.0,30.01,SSW,205,1.0,1.0,93,0.00,,,0.00,weatherlink.com 1.10,2014-09-30 13:53:00,
2014-09-30 07:08:00,53.7,52.0,30.02,SW,221,1.0,2.0,93,0.00,,,0.00,weatherlink.com 1.10,2014-09-30 14:08:00,
2014-09-30 07:23:00,54.0,52.0,30.02,SSW,205,0.0,2.0,93,0.00,,,0.00,weatherlink.com 1.10,2014-09-30 14:23:00,
2014-09-30 07:38:00,54.3,52.0,30.02,SW,236,0.0,2.0,92,0.00,,,0.00,weatherlink.com 1.10,2014-09-30 14:38:00,
2014-09-30 07:53:00,54.6,52.0,30.03,SW,214,0.0,1.0,91,0.00,,,0.00,weatherlink.com 1.10,2014-09-30 14:53:00,
2014-09-30 08:08:00,54.9,52.0,30.03,SSW,197,0.0,1.0,91,0.00,,,0.00,weatherlink.com 1.10,2014-09-30 15:08:00,
2014-09-30 08:23:00,55.0,53.0,30.03,WSW,252,0.0,1.0,91,0.00,,,0.00,weatherlink.com 1.10,2014-09-30 15:23:00,
2014-09-30 08:38:00,55.1,53.0,30.04,SSE,158,0.0,1.0,91,0.00,,,0.00,weatherlink.com 1.10,2014-09-30 15:38:00,
2014-09-30 08:53:00,55.3,53.0,30.05,SSW,200,0.0,4.0,91,0.00,,,0.00,weatherlink.com 1.10,2014-09-30 15:53:00,
2014-09-30 09:08:00,55.6,53.0,30.05,SSE,155,3.0,3.0,92,0.00,,,0.00,weatherlink.com 1.10,2014-09-30 16:08:00,
2014-09-30 09:23:00,56.3,54.0,30.05,SSW,198,0.0,3.0,90,0.00,,,0.00,weatherlink.com 1.10,2014-09-30 16:23:00,